Jaipur, India

2:41 PM IST on August 28, 2016 (GMT +0530)
Jaipur

Weather History for VIJP - July, 2013

Change the Weather History Date:

Friday, July 26, 2013

  Actual Average Record
Temperature  
Mean Temperature 85 °F -  
Max Temperature 92 °F - - ()
Min Temperature 78 °F - - ()
Cooling Degree Days 20    
Growing Degree Days 35 (Base 50)    
Moisture  
Dew Point 77 °F    
Average Humidity 83    
Maximum Humidity 94    
Minimum Humidity 55    
Precipitation  
Precipitation 0.03 in - - ()
Sea Level Pressure  
Sea Level Pressure 29.43 in    
Wind  
Wind Speed 4 mph ()    
Max Wind Speed 16 mph    
Max Gust Speed -    
Visibility 1.8 miles    
Events Rain , Thunderstorm    
T = Trace of Precipitation, MM = Missing Value Source: Averaged Metar Reports

Daily Weather History Graph

Daily Weather History Graph

Search for Another Location

Airport or City:

Trip Planner

Search our weather history database for the weather conditions in past years. The results will help you decide how hot, cold, wet, or windy it might be!

Date:

Astronomy

Jul. 26, 2013 Rise Set
Actual Time 5:48 AM IST 7:18 PM IST
Civil Twilight 5:22 AM IST 7:43 PM IST
Nautical Twilight 4:52 AM IST 8:13 PM IST
Astronomical Twilight 4:20 AM IST 8:45 PM IST
Moon 9:48 PM IST (7/26) 9:25 AM IST (7/26)
Length of Visible Light 14h 20m
Length of Day
13h 30m
Waning Gibbous, 83% of the Moon is Illuminated
Jul 26
Waning Gibbous
Jul 29
Last Quarter
Aug 7
New
Aug 14
First Quarter
Aug 21
Full

Hourly Weather History & Observations

Time (IST) Temp. Heat Index Dew Point Humidity Pressure Visibility Wind Dir Wind Speed Gust Speed Precip Events Conditions
12:00 AM 78.8 °F - 77.0 °F 94% 29.47 in 1.9 mi Variable 3.5 mph - N/A   Mostly Cloudy
1:00 AM 78.8 °F - 77.0 °F 94% 29.44 in 1.9 mi Variable 1.2 mph - N/A   Mostly Cloudy
2:30 AM 80 °F - 78 °F 90% 29.38 in 1 mi South 1.2 mph - -   Mist
4:00 AM 78.8 °F - 77.0 °F 94% 29.44 in 1.9 mi Variable 3.5 mph - N/A   Mostly Cloudy
5:00 AM 78.8 °F - 77.0 °F 94% 29.44 in 1.9 mi West 3.5 mph - N/A   Mostly Cloudy
5:30 AM 80 °F - 77 °F 88% 29.35 in 1 mi SE 3.5 mph - -   Mist
6:00 AM 78.8 °F - 77.0 °F 94% 29.44 in 1.9 mi Calm Calm - N/A   Mostly Cloudy
7:00 AM 80.6 °F 87.1 °F 77.0 °F 89% 29.44 in 1.9 mi Variable 3.5 mph - N/A   Scattered Clouds
8:00 AM 82.4 °F 90.9 °F 77.0 °F 84% 29.47 in 1.9 mi WNW 5.8 mph - N/A   Scattered Clouds
8:30 AM 83 °F - 77 °F 77% 29.38 in 1 mi NW 4.6 mph - -   Mist
9:00 AM 84.2 °F 94.1 °F 77.0 °F 79% 29.47 in 1.9 mi Variable 6.9 mph - N/A   Scattered Clouds
10:00 AM 86.0 °F 96.9 °F 77.0 °F 74% 29.50 in 2.5 mi Variable 8.1 mph - N/A   Haze
11:00 AM 87.8 °F 99.7 °F 77.0 °F 70% 29.47 in 2.5 mi Variable 5.8 mph - N/A   Haze
11:30 AM 88 °F - 76 °F 60% 29.39 in 2 mi NNE 4.6 mph - -   Haze
12:00 PM 87.8 °F 99.7 °F 77.0 °F 70% 29.47 in 2.5 mi Variable 8.1 mph - N/A   Haze
1:00 PM 89.6 °F 102.2 °F 77.0 °F 66% 29.44 in 2.5 mi Variable 6.9 mph - N/A   Haze
1:30 PM 89.6 °F 102.2 °F 77.0 °F 66% 29.44 in 2.5 mi Variable 5.8 mph - N/A   Haze
2:00 PM 91.4 °F 107.2 °F 78.8 °F 66% 29.42 in 2.5 mi Variable 6.9 mph - N/A   Haze
2:30 PM 91 °F - 77 °F 55% 29.35 in 2 mi NW 5.8 mph - -   Haze
2:30 PM 91.4 °F 107.2 °F 78.8 °F 66% 29.42 in 2.5 mi Variable 6.9 mph - N/A   Haze
3:30 PM 78.8 °F - 75.2 °F 89% 29.42 in 1.9 mi East 16.1 mph - N/A Rain , Thunderstorm Light Thunderstorms and Rain
4:00 PM 78.8 °F - 75.2 °F 89% 29.42 in 1.6 mi East 13.8 mph - N/A   Mostly Cloudy
5:00 PM 78.8 °F - 77.0 °F 94% 29.42 in 1.6 mi ESE 6.9 mph - N/A   Overcast
5:30 PM 79 °F - 77 °F 92% 29.37 in 1 mi South 4.6 mph - -   Mist
6:00 PM 78.8 °F - 77.0 °F 94% 29.42 in 1.6 mi South 5.8 mph - N/A   Overcast
7:00 PM 78.8 °F - 75.2 °F 89% 29.44 in 1.6 mi Calm Calm - N/A   Overcast
8:00 PM 78.8 °F - 77.0 °F 94% 29.44 in 1.6 mi Calm Calm - N/A   Overcast
8:30 PM 80 °F - 76 °F 84% 29.40 in 1 mi SW 2.3 mph - -   Mist
9:00 PM 78.8 °F - 75.2 °F 89% 29.47 in 1.6 mi WSW 4.6 mph - N/A   Overcast
10:00 PM 78.8 °F - 75.2 °F 89% 29.50 in 1.6 mi West 4.6 mph - N/A   Overcast
11:00 PM 78.8 °F - 75.2 °F 89% 29.50 in 1.6 mi Calm Calm - N/A   Mostly Cloudy
11:30 PM 78 °F - 76 °F 94% 29.45 in 1 mi Calm Calm - -   Haze